This is the latest recevied weather packets stored in our database for station/object 2E0RGX-13. If no packets are shown the sender has not sent any weather packets the latest 10 day(s).
| Time | Temp. | Humidity | Pressure | Rain* | Wind** | Luminosity | Snow |
|---|---|---|---|---|---|---|---|
| 1778151973 | 12.78° C | 64% | 1013.4 hPa | 0 mm | - | 2 W/m² | - |
| 1778151669 | 12.78° C | 65% | 1013.2 hPa | 0 mm | - | 1 W/m² | - |
| 1778151365 | 12.78° C | 66% | 1013.1 hPa | 0 mm | - | 1 W/m² | - |
| 1778151062 | 12.22° C | 66% | 1013.1 hPa | 0 mm | - | 1 W/m² | - |
| 1778150758 | 12.22° C | 66% | 1013.3 hPa | 0 mm | - | 1 W/m² | - |
| 1778150454 | 12.22° C | 66% | 1013.3 hPa | 0 mm | - | 1 W/m² | - |
| 1778150150 | 12.22° C | 66% | 1013.2 hPa | 0 mm | - | 1 W/m² | - |
| 1778149846 | 12.22° C | 66% | 1013.3 hPa | 0 mm | - | 1 W/m² | - |
| 1778149542 | 12.22° C | 65% | 1013.1 hPa | 0 mm | - | 1 W/m² | - |
| 1778149238 | 12.22° C | 65% | 1013.3 hPa | 0 mm | - | 1 W/m² | - |
| 1778148934 | 12.22° C | 66% | 1013.4 hPa | 0 mm | - | 1 W/m² | - |
| 1778148630 | 12.22° C | 66% | 1013.2 hPa | 0 mm | - | 1 W/m² | - |
| 1778148326 | 12.22° C | 67% | 1013.2 hPa | 0 mm | - | 1 W/m² | - |
| 1778148022 | 12.22° C | 67% | 1013.2 hPa | 0 mm | - | 1 W/m² | - |
| 1778147718 | 12.22° C | 66% | 1013.3 hPa | 0 mm | - | 1 W/m² | - |
| 1778147414 | 12.22° C | 66% | 1013.3 hPa | 0 mm | - | 1 W/m² | - |
| 1778147110 | 12.22° C | 65% | 1013.3 hPa | 0 mm | - | 1 W/m² | - |
| 1778146806 | 12.22° C | 64% | 1013.2 hPa | 0 mm | - | 1 W/m² | - |
| 1778146502 | 12.22° C | 65% | 1013 hPa | 0 mm | - | 1 W/m² | - |
| 1778146198 | 12.22° C | 65% | 1013.3 hPa | 0 mm | - | 1 W/m² | - |
| 1778145894 | 12.78° C | 66% | 1013.2 hPa | 0 mm | - | 1 W/m² | - |
| 1778145590 | 13.33° C | 66% | 1013.2 hPa | 0 mm | - | 2 W/m² | - |
| 1778145286 | 12.78° C | 66% | 1013.1 hPa | 0 mm | - | 2 W/m² | - |
| 1778144982 | 13.33° C | 65% | 1013.4 hPa | 0 mm | - | 5 W/m² | - |
| 1778144678 | 12.22° C | 68% | 1013.4 hPa | 0 mm | - | 4 W/m² | - |
* Rain latest hour (hover to see other rain measurements)
** Current wind speed in m/s (hover to see current wind gust speed)